Weather History for Flag Island, MN

Change the Weather History Date:

Friday, May 31, 2013

  Actual Average Record
Temperature  
Mean Temperature 52 °F -  
Max Temperature 55 °F 60 °F 78 °F (2005)
Min Temperature 48 °F 46 °F 37 °F (1998)
Degree Days  
Heating Degree Days 14    
Growing Degree Days 2 (Base 50)    
Moisture  
Dew Point 51 °F    
Average Humidity 91    
Maximum Humidity 94    
Minimum Humidity 82    
Precipitation  
Precipitation 0.75 in - - ()
Sea Level Pressure  
Sea Level Pressure 29.55 in    
Wind  
Wind Speed 17 mph (NE)    
Max Wind Speed 26 mph    
Max Gust Speed 31 mph    
Visibility 10 miles    
Events Rain    
Averages and records for this station are not official NWS values.
T = Trace of Precipitation, MM = Missing Value Source: NWS Daily Summary

Daily Weather History Graph

Daily Weather History Graph

Search for Another Location

Airport:

Trip Planner

Search our weather history database for the weather conditions in past years. The results will help you decide how hot, cold, wet, or windy it might be!

Date:

Astronomy

May. 31, 2013 Rise Set
Actual Time 5:19 AM CDT 9:16 PM CDT
Civil Twilight 4:37 AM CDT 9:57 PM CDT
Nautical Twilight 3:39 AM CDT 10:56 PM CDT
Astronomical Twilight 2:03 AM CDT 12:35 AM CDT
Moon 1:24 AM CDT (5/31) 1:04 PM CDT (5/31)
Length of Visible Light 17h 20m
Length of Day
15h 57m
Waning Gibbous, 51% of the Moon is Illuminated
May 31
Waning Gibbous
May 31
Last Quarter
Jun 8
New
Jun 16
First Quarter
Jun 23
Full

Hourly Weather History & Observations

Time (CDT) Temp. Dew Point Humidity Pressure Visibility Wind Dir Wind Speed Gust Speed Precip Events Conditions
12:13 AM 55.4 °F 51.8 °F 88% 29.57 in 10.0 mi ENE 19.6 mph 23.0 mph N/A   Overcast
12:33 AM 53.6 °F 51.8 °F 94% 29.56 in 10.0 mi NE 15.0 mph 24.2 mph N/A   Overcast
12:53 AM 53.6 °F 51.8 °F 94% 29.56 in 10.0 mi NE 19.6 mph 25.3 mph N/A   Overcast
1:13 AM 53.6 °F 51.8 °F 94% 29.56 in 10.0 mi NE 17.3 mph 21.9 mph N/A   Overcast
1:34 AM 53.6 °F 51.8 °F 94% 29.56 in 10.0 mi NE 16.1 mph - N/A   Overcast
1:53 AM 53.6 °F 51.8 °F 94% 29.55 in 7.0 mi NE 17.3 mph - N/A   Overcast
2:13 AM 53.6 °F 51.8 °F 94% 29.54 in 10.0 mi NE 17.3 mph 25.3 mph N/A   Overcast
2:34 AM 53.6 °F 51.8 °F 94% 29.53 in 10.0 mi NE 16.1 mph - N/A   Overcast
2:53 AM 53.6 °F 51.8 °F 94% 29.53 in 10.0 mi NE 16.1 mph 24.2 mph N/A   Overcast
3:13 AM 53.6 °F 51.8 °F 94% 29.51 in 10.0 mi NE 19.6 mph 24.2 mph N/A   Overcast
3:34 AM 53.6 °F 51.8 °F 94% 29.50 in 10.0 mi ENE 16.1 mph 25.3 mph N/A   Overcast
3:53 AM 53.6 °F 51.8 °F 94% 29.49 in 10.0 mi NE 16.1 mph 24.2 mph N/A   Overcast
4:13 AM 53.6 °F 51.8 °F 94% 29.49 in 10.0 mi NE 16.1 mph 25.3 mph N/A   Overcast
4:34 AM 53.6 °F 51.8 °F 94% 29.49 in 5.0 mi ENE 16.1 mph 24.2 mph N/A Rain Rain
4:53 AM 53.6 °F 51.8 °F 94% 29.49 in 7.0 mi NE 15.0 mph 18.4 mph 0.01 in Rain Rain
5:13 AM 53.6 °F 51.8 °F 94% 29.48 in 7.0 mi ENE 12.7 mph 20.7 mph 0.02 in Rain Rain
5:34 AM 53.6 °F 51.8 °F 94% 29.48 in 7.0 mi ENE 12.7 mph 20.7 mph 0.19 in Rain Heavy Rain
5:53 AM 53.6 °F 51.8 °F 94% 29.48 in 10.0 mi ENE 11.5 mph - 0.31 in Rain Heavy Rain
6:13 AM 53.6 °F 51.8 °F 94% 29.47 in 10.0 mi NE 10.4 mph 16.1 mph 0.05 in Rain Rain
6:33 AM 53.6 °F 51.8 °F 94% 29.48 in 5.0 mi ENE 10.4 mph 18.4 mph 0.21 in Rain Heavy Rain
6:53 AM 53.6 °F 51.8 °F 94% 29.48 in 10.0 mi ENE 10.4 mph - 0.26 in Rain Light Rain
7:14 AM 53.6 °F 51.8 °F 94% 29.48 in 5.0 mi ENE 16.1 mph 19.6 mph 0.06 in Rain Heavy Rain
7:33 AM 53.6 °F 51.8 °F 94% 29.48 in 10.0 mi ENE 11.5 mph 16.1 mph 0.09 in Rain Light Rain
7:54 AM 53.6 °F 51.8 °F 94% 29.47 in 10.0 mi ENE 13.8 mph 25.3 mph 0.12 in Rain Rain
8:14 AM 53.6 °F 51.8 °F 94% 29.47 in 10.0 mi ENE 11.5 mph 18.4 mph 0.04 in Rain Light Rain
8:33 AM 53.6 °F 51.8 °F 94% 29.48 in 10.0 mi ENE 12.7 mph - 0.05 in Rain Light Rain
8:54 AM 53.6 °F 51.8 °F 94% 29.48 in 10.0 mi ENE 11.5 mph - 0.05 in   Light Drizzle
9:14 AM 53.6 °F 51.8 °F 94% 29.48 in 10.0 mi ENE 13.8 mph 18.4 mph N/A   Overcast
9:33 AM 53.6 °F 51.8 °F 94% 29.49 in 10.0 mi ENE 15.0 mph 19.6 mph N/A   Overcast
9:54 AM 53.6 °F 51.8 °F 94% 29.48 in 10.0 mi ENE 12.7 mph - N/A   Overcast
10:14 AM 53.6 °F 51.8 °F 94% 29.48 in 10.0 mi ENE 12.7 mph 18.4 mph N/A   Overcast
10:33 AM 53.6 °F 51.8 °F 94% 29.48 in 10.0 mi NE 12.7 mph 18.4 mph N/A   Overcast
10:53 AM 55.4 °F 51.8 °F 88% 29.49 in 10.0 mi ENE 13.8 mph - N/A   Overcast
11:14 AM 55.4 °F 53.6 °F 94% 29.49 in 10.0 mi ENE 12.7 mph 20.7 mph N/A   Overcast
11:33 AM 55.4 °F 53.6 °F 94% 29.49 in 10.0 mi NE 13.8 mph - N/A   Overcast
11:53 AM 55.4 °F 53.6 °F 94% 29.49 in 10.0 mi NE 13.8 mph - N/A   Overcast
12:14 PM 55.4 °F 53.6 °F 94% 29.50 in 10.0 mi NNE 16.1 mph - N/A   Overcast
12:33 PM 55.4 °F 51.8 °F 88% 29.51 in 10.0 mi NNE 16.1 mph 24.2 mph N/A   Overcast
12:53 PM 55.4 °F 51.8 °F 88% 29.52 in 10.0 mi NNE 16.1 mph - N/A   Overcast
1:14 PM 55.4 °F 51.8 °F 88% 29.52 in 10.0 mi NE 20.7 mph - N/A   Overcast
1:33 PM 55.4 °F 51.8 °F 88% 29.52 in 10.0 mi NE 19.6 mph 24.2 mph N/A   Overcast
1:53 PM 55.4 °F 51.8 °F 88% 29.52 in 10.0 mi NE 20.7 mph 24.2 mph N/A   Overcast
2:14 PM 55.4 °F 51.8 °F 88% 29.53 in 10.0 mi NE 17.3 mph 24.2 mph N/A   Overcast
2:33 PM 55.4 °F 51.8 °F 88% 29.53 in 7.0 mi NE 17.3 mph 24.2 mph N/A Rain Light Rain
2:53 PM 55.4 °F 51.8 °F 88% 29.53 in 10.0 mi NNE 18.4 mph - N/A   Overcast
3:14 PM 55.4 °F 51.8 °F 88% 29.52 in 10.0 mi NNE 21.9 mph 27.6 mph N/A   Mostly Cloudy
3:33 PM 55.4 °F 51.8 °F 88% 29.53 in 10.0 mi NNE 23.0 mph 29.9 mph N/A   Scattered Clouds
3:53 PM 55.4 °F 51.8 °F 88% 29.55 in 10.0 mi NE 20.7 mph 24.2 mph N/A   Mostly Cloudy
4:14 PM 55.4 °F 51.8 °F 88% 29.57 in 10.0 mi NE 12.7 mph 18.4 mph N/A   Overcast
4:33 PM 55.4 °F 51.8 °F 88% 29.58 in 10.0 mi NNE 9.2 mph - N/A   Overcast
4:53 PM 55.4 °F 51.8 °F 88% 29.57 in 10.0 mi NNE 15.0 mph - N/A   Overcast
5:14 PM 55.4 °F 51.8 °F 88% 29.57 in 10.0 mi NNE 17.3 mph 23.0 mph N/A   Overcast
5:33 PM 53.6 °F 51.8 °F 94% 29.57 in 10.0 mi NE 20.7 mph - N/A Rain Light Rain
5:53 PM 53.6 °F 51.8 °F 94% 29.57 in 10.0 mi NE 21.9 mph 26.5 mph N/A   Light Drizzle
6:14 PM 53.6 °F 50.0 °F 88% 29.57 in 10.0 mi NNE 23.0 mph 28.8 mph N/A Rain Light Rain
6:33 PM 53.6 °F 50.0 °F 88% 29.59 in 10.0 mi NE 18.4 mph - N/A   Light Drizzle
6:53 PM 53.6 °F 50.0 °F 88% 29.60 in 10.0 mi NE 20.7 mph 26.5 mph N/A   Overcast
7:13 PM 53.6 °F 48.2 °F 82% 29.60 in 10.0 mi NNE 18.4 mph 31.1 mph N/A   Overcast
7:33 PM 53.6 °F 48.2 °F 82% 29.61 in 10.0 mi NNE 18.4 mph 26.5 mph N/A   Overcast
7:54 PM 51.8 °F 48.2 °F 88% 29.62 in 10.0 mi NNE 23.0 mph 26.5 mph N/A   Overcast
8:13 PM 51.8 °F 48.2 °F 88% 29.63 in 10.0 mi NNE 20.7 mph 27.6 mph N/A   Overcast
8:33 PM 50.0 °F 48.2 °F 94% 29.63 in 10.0 mi NNE 21.9 mph - N/A   Overcast
8:54 PM 50.0 °F 46.4 °F 87% 29.64 in 10.0 mi NNE 23.0 mph 28.8 mph N/A   Overcast
9:13 PM 50.0 °F 46.4 °F 87% 29.65 in 10.0 mi NNE 18.4 mph 25.3 mph N/A   Overcast
9:34 PM 48.2 °F 46.4 °F 93% 29.66 in 10.0 mi NNE 20.7 mph - N/A   Overcast
9:53 PM 48.2 °F 46.4 °F 93% 29.67 in 10.0 mi NNE 20.7 mph 26.5 mph N/A   Overcast
10:14 PM 48.2 °F 44.6 °F 87% 29.67 in 10.0 mi NE 17.3 mph 28.8 mph N/A   Overcast
10:33 PM 48.2 °F 44.6 °F 87% 29.68 in 10.0 mi NNE 19.6 mph 25.3 mph N/A   Overcast
10:54 PM 48.2 °F 44.6 °F 87% 29.69 in 10.0 mi NNE 21.9 mph 27.6 mph N/A   Overcast
11:13 PM 48.2 °F 44.6 °F 87% 29.68 in 10.0 mi NNE 26.5 mph 31.1 mph N/A   Overcast
11:34 PM 48.2 °F 44.6 °F 87% 29.69 in 10.0 mi NNE 25.3 mph - N/A   Overcast
11:53 PM 48.2 °F 44.6 °F 87% 29.70 in 10.0 mi NNE 19.6 mph 27.6 mph N/A   Overcast